Year,Month,Day,Hour,Minute,Value (Times are PST for temperature in C)
2018,04,06,00,00,9.80
2018,04,06,00,01,9.80
2018,04,06,00,02,9.80
2018,04,06,00,03,9.80
2018,04,06,00,04,9.80
2018,04,06,00,05,9.80
2018,04,06,00,06,9.80
2018,04,06,00,07,9.80
2018,04,06,00,08,9.80
2018,04,06,00,09,9.80
2018,04,06,00,10,9.80
2018,04,06,00,11,9.80
2018,04,06,00,12,9.80
2018,04,06,00,13,9.80
2018,04,06,00,14,9.80
2018,04,06,00,15,9.80
2018,04,06,00,16,9.80
2018,04,06,00,17,9.80
2018,04,06,00,18,9.80
2018,04,06,00,19,9.80
2018,04,06,00,20,9.80
2018,04,06,00,21,9.80
2018,04,06,00,22,9.80
2018,04,06,00,23,9.80
2018,04,06,00,24,9.80
2018,04,06,00,25,9.80
2018,04,06,00,26,9.80
2018,04,06,00,27,9.80
2018,04,06,00,28,9.80
2018,04,06,00,29,9.80
2018,04,06,00,30,9.80
2018,04,06,00,31,9.80
2018,04,06,00,32,9.80
2018,04,06,00,33,9.80
2018,04,06,00,34,9.80
2018,04,06,00,35,9.80
2018,04,06,00,36,9.80
2018,04,06,00,37,9.80
2018,04,06,00,38,9.80
2018,04,06,00,39,9.80
2018,04,06,00,40,9.80
2018,04,06,00,41,9.80
2018,04,06,13,50,13.30
2018,04,06,13,51,13.30
2018,04,06,13,52,13.40
2018,04,06,13,53,13.40
2018,04,06,13,54,13.40
2018,04,06,13,55,13.40
2018,04,06,13,56,13.50
2018,04,06,13,57,13.50
2018,04,06,13,58,13.50
2018,04,06,13,59,13.60
2018,04,06,14,00,13.60
2018,04,06,14,01,13.50
2018,04,06,14,02,13.40
2018,04,06,14,03,13.40
2018,04,06,14,04,13.30
2018,04,06,14,05,13.20
2018,04,06,14,06,13.20
2018,04,06,14,07,13.20
2018,04,06,14,08,13.20
2018,04,06,14,09,13.20
2018,04,06,14,10,13.20
2018,04,06,14,11,13.20
2018,04,06,14,12,13.20
2018,04,06,14,13,13.20
2018,04,06,14,14,13.20
2018,04,06,14,15,13.20
2018,04,06,14,16,13.20
2018,04,06,14,17,13.20
2018,04,06,14,18,13.20
2018,04,06,14,19,13.20
2018,04,06,14,20,13.10
2018,04,06,14,21,13.20
2018,04,06,14,22,13.20
2018,04,06,14,23,13.20
2018,04,06,14,24,13.20
2018,04,06,14,25,13.30
2018,04,06,14,26,13.20
2018,04,06,14,27,13.20
2018,04,06,14,28,13.20
2018,04,06,14,29,13.20
2018,04,06,14,30,13.30
2018,04,06,14,31,13.30
2018,04,06,14,32,13.30
2018,04,06,14,33,13.30
2018,04,06,14,34,13.30
2018,04,06,14,35,13.30
2018,04,06,14,36,13.20
2018,04,06,14,37,13.20
2018,04,06,14,38,13.20
2018,04,06,14,39,13.20
2018,04,06,14,40,13.30
2018,04,06,14,41,13.30
2018,04,06,14,42,13.30
2018,04,06,14,43,13.40
2018,04,06,14,44,13.40
2018,04,06,14,45,13.50
2018,04,06,14,46,13.50
2018,04,06,14,47,13.60
2018,04,06,14,48,13.70
2018,04,06,14,49,13.70
2018,04,06,14,50,13.80
2018,04,06,14,51,13.80
2018,04,06,14,52,13.90
2018,04,06,14,53,13.90
2018,04,06,14,54,13.90
2018,04,06,14,55,13.90
2018,04,06,14,56,13.90
2018,04,06,14,57,13.90
2018,04,06,14,58,13.90
2018,04,06,14,59,14.00
2018,04,06,15,00,14.00
2018,04,06,15,01,14.10
2018,04,06,15,02,14.10
2018,04,06,15,03,14.10
2018,04,06,15,04,14.10
2018,04,06,15,05,14.20
2018,04,06,15,06,14.20
2018,04,06,15,07,14.20
2018,04,06,15,08,14.30
2018,04,06,15,09,14.40
2018,04,06,15,10,14.40
2018,04,06,15,11,14.40
2018,04,06,15,12,14.40
2018,04,06,15,13,14.40
2018,04,06,15,14,14.50
2018,04,06,15,15,14.60
2018,04,06,15,16,14.50
2018,04,06,15,17,14.50
2018,04,06,15,18,14.60
2018,04,06,15,19,14.60
2018,04,06,15,20,14.60
2018,04,06,15,21,14.50
2018,04,06,15,22,14.50
2018,04,06,15,23,14.50
2018,04,06,15,24,14.40
2018,04,06,15,25,14.40
2018,04,06,15,26,14.30
2018,04,06,15,27,14.30
2018,04,06,15,28,14.20
2018,04,06,15,29,14.20
2018,04,06,15,30,14.10
2018,04,06,15,31,14.10
2018,04,06,15,32,14.10
2018,04,06,15,33,14.10
2018,04,06,15,34,14.10
2018,04,06,15,35,14.20
2018,04,06,15,36,14.20
2018,04,06,15,37,14.20
2018,04,06,15,38,14.20
2018,04,06,15,39,14.20
2018,04,06,15,40,14.10
2018,04,06,15,41,14.10
2018,04,06,15,42,14.10
2018,04,06,15,43,14.10
2018,04,06,15,44,14.10
2018,04,06,15,45,14.10
2018,04,06,15,46,14.10
2018,04,06,15,47,14.10
2018,04,06,15,48,14.10
2018,04,06,15,49,14.20
2018,04,06,15,50,14.20
2018,04,06,15,51,14.30
2018,04,06,15,52,14.20
2018,04,06,15,53,14.20
2018,04,06,15,54,14.20
2018,04,06,15,55,14.20
2018,04,06,15,56,14.10
2018,04,06,15,57,14.10
2018,04,06,15,58,14.10
2018,04,06,15,59,14.10
2018,04,06,16,00,14.10
2018,04,06,16,01,14.10
2018,04,06,16,02,14.00
2018,04,06,16,03,14.00
2018,04,06,16,04,14.00
2018,04,06,16,05,14.10
2018,04,06,16,06,14.10
2018,04,06,16,07,14.10
2018,04,06,16,08,14.00
2018,04,06,16,09,13.90
2018,04,06,16,10,13.90
2018,04,06,16,11,13.90
2018,04,06,16,12,13.90
2018,04,06,16,13,13.80
2018,04,06,16,14,13.80
2018,04,06,16,15,13.80
2018,04,06,16,16,13.80
2018,04,06,16,17,13.80
2018,04,06,16,18,13.80
2018,04,06,16,19,13.80
2018,04,06,16,20,13.80
2018,04,06,16,21,13.90
2018,04,06,16,22,13.90
2018,04,06,16,23,13.90
2018,04,06,16,24,14.00
2018,04,06,16,25,14.10
2018,04,06,16,26,14.10
2018,04,06,16,27,14.20
2018,04,06,16,28,14.20
2018,04,06,16,29,14.30
2018,04,06,16,30,14.40
2018,04,06,16,31,14.50
2018,04,06,16,32,14.50
2018,04,06,16,33,14.50
2018,04,06,16,34,14.50
2018,04,06,16,35,14.50
2018,04,06,16,36,14.40
2018,04,06,16,37,14.40
2018,04,06,16,38,14.30
2018,04,06,16,39,14.20
2018,04,06,16,40,14.20
2018,04,06,16,41,14.20
2018,04,06,16,42,14.20
2018,04,06,16,43,14.20
2018,04,06,16,44,14.20
2018,04,06,16,45,14.20
2018,04,06,16,46,14.20
2018,04,06,16,47,14.20
2018,04,06,16,48,14.30
2018,04,06,16,49,14.30
2018,04,06,16,50,14.30
2018,04,06,16,51,14.30
2018,04,06,16,52,14.30
2018,04,06,16,53,14.30
2018,04,06,16,54,14.30
2018,04,06,16,55,14.30
2018,04,06,16,56,14.30
2018,04,06,16,57,14.40
2018,04,06,16,58,14.40
2018,04,06,16,59,14.50
2018,04,06,17,00,14.50
2018,04,06,17,01,14.60
2018,04,06,17,02,14.60
2018,04,06,17,03,14.60
2018,04,06,17,04,14.60
2018,04,06,17,05,14.60
2018,04,06,17,06,14.60
2018,04,06,17,07,14.60
2018,04,06,17,08,14.70
2018,04,06,17,09,14.70
2018,04,06,17,10,14.70
2018,04,06,17,11,14.70
2018,04,06,17,12,14.70
2018,04,06,17,13,14.70
2018,04,06,17,14,14.70
2018,04,06,17,15,14.70
2018,04,06,17,16,14.70
2018,04,06,17,17,14.70
2018,04,06,17,18,14.70
2018,04,06,17,19,14.70
2018,04,06,17,20,14.70
2018,04,06,17,21,14.70
2018,04,06,17,22,14.70
2018,04,06,17,23,14.60
2018,04,06,17,24,14.60
2018,04,06,17,25,14.70
2018,04,06,17,26,14.70
2018,04,06,17,27,14.70
2018,04,06,17,28,14.70
2018,04,06,17,29,14.70
2018,04,06,17,30,14.80
2018,04,06,17,31,14.80
2018,04,06,17,32,14.80
2018,04,06,17,33,14.70
2018,04,06,17,34,14.70
2018,04,06,17,35,14.70
2018,04,06,17,36,14.60
2018,04,06,17,37,14.60
2018,04,06,17,38,14.60
2018,04,06,17,39,14.60
2018,04,06,17,40,14.60
2018,04,06,17,41,14.60
2018,04,06,17,42,14.60
2018,04,06,17,43,14.60
2018,04,06,17,44,14.60
2018,04,06,17,45,14.60
2018,04,06,17,46,14.60
2018,04,06,17,47,14.60
2018,04,06,17,48,14.60
2018,04,06,17,49,14.60
2018,04,06,17,50,14.60
2018,04,06,17,51,14.60
2018,04,06,17,52,14.60
2018,04,06,17,53,14.60
2018,04,06,17,54,14.60
2018,04,06,17,55,14.60
2018,04,06,17,56,14.60
2018,04,06,17,57,14.50
2018,04,06,17,58,14.50
2018,04,06,17,59,14.50
2018,04,06,18,00,14.50
2018,04,06,18,01,14.50
2018,04,06,18,02,14.40
2018,04,06,18,03,14.40
2018,04,06,18,04,14.40
2018,04,06,18,05,14.40
2018,04,06,18,06,14.40
2018,04,06,18,07,14.40
2018,04,06,18,08,14.40
2018,04,06,18,09,14.30
2018,04,06,18,10,14.30
2018,04,06,18,11,14.30
2018,04,06,18,12,14.30
2018,04,06,18,13,14.20
2018,04,06,18,14,14.20
2018,04,06,18,15,14.20
2018,04,06,18,16,14.10
2018,04,06,18,17,14.10
2018,04,06,18,18,14.10
2018,04,06,18,19,14.00
2018,04,06,18,20,14.00
2018,04,06,18,21,13.90
2018,04,06,18,22,13.80
2018,04,06,18,23,13.80
2018,04,06,18,24,13.70
2018,04,06,18,25,13.70
2018,04,06,18,26,13.70
2018,04,06,18,27,13.60
2018,04,06,18,28,13.60
2018,04,06,18,29,13.50
2018,04,06,18,30,13.50
2018,04,06,18,31,13.50
2018,04,06,18,32,13.40
2018,04,06,18,33,13.40
2018,04,06,18,34,13.40
2018,04,06,18,35,13.40
2018,04,06,18,36,13.40
2018,04,06,18,37,13.30
2018,04,06,18,38,13.30
2018,04,06,18,39,13.30
2018,04,06,18,40,13.30
2018,04,06,18,41,13.30
2018,04,06,18,42,13.30
2018,04,06,18,43,13.30
2018,04,06,18,44,13.30
2018,04,06,18,45,13.30
2018,04,06,18,46,13.20
2018,04,06,18,47,13.20
2018,04,06,18,48,13.20
2018,04,06,18,49,13.20
2018,04,06,18,50,13.20
2018,04,06,18,51,13.10
2018,04,06,18,52,13.10
2018,04,06,18,53,13.10
2018,04,06,18,54,13.10
2018,04,06,18,55,13.10
2018,04,06,18,56,13.10
2018,04,06,18,57,13.10
2018,04,06,18,58,13.00
2018,04,06,18,59,13.00
2018,04,06,19,00,13.00
2018,04,06,19,01,12.90
2018,04,06,19,02,12.90
2018,04,06,19,03,12.90
2018,04,06,19,04,12.90
2018,04,06,19,05,12.90
2018,04,06,19,06,12.90
2018,04,06,19,07,12.90
2018,04,06,19,08,12.80
2018,04,06,19,09,12.80
2018,04,06,19,10,12.80
2018,04,06,19,11,12.80
2018,04,06,19,12,12.80
2018,04,06,19,13,12.80
2018,04,06,19,14,12.80
2018,04,06,19,15,12.70
2018,04,06,19,16,12.70
2018,04,06,19,17,12.70
2018,04,06,19,18,12.70
2018,04,06,19,19,12.70
2018,04,06,19,20,12.70
2018,04,06,19,21,12.70
2018,04,06,19,22,12.60
2018,04,06,19,23,12.60
2018,04,06,19,24,12.60
2018,04,06,19,25,12.60
2018,04,06,19,26,12.60
2018,04,06,19,27,12.60
2018,04,06,19,28,12.60
2018,04,06,19,29,12.60
2018,04,06,19,30,12.60
2018,04,06,19,31,12.60
2018,04,06,19,32,12.50
2018,04,06,19,33,12.50
2018,04,06,19,34,12.50
2018,04,06,19,35,12.50
2018,04,06,19,36,12.50
2018,04,06,19,37,12.50
2018,04,06,19,38,12.50
2018,04,06,19,39,12.50
2018,04,06,19,40,12.50
2018,04,06,19,41,12.40
2018,04,06,19,42,12.40
2018,04,06,19,43,12.40
2018,04,06,19,44,12.40
2018,04,06,19,45,12.40
2018,04,06,19,46,12.40
2018,04,06,19,47,12.40
2018,04,06,19,48,12.40
2018,04,06,19,49,12.40
2018,04,06,19,50,12.40
2018,04,06,19,51,12.40
2018,04,06,19,52,12.40
2018,04,06,19,53,12.30
2018,04,06,19,54,12.30
2018,04,06,19,55,12.30
2018,04,06,19,56,12.30
2018,04,06,19,57,12.30
2018,04,06,19,58,12.30
2018,04,06,19,59,12.30
2018,04,06,20,00,12.30
2018,04,06,20,01,12.20
2018,04,06,20,02,12.20
2018,04,06,20,03,12.20
2018,04,06,20,04,12.20
2018,04,06,20,05,12.20
2018,04,06,20,06,12.20
2018,04,06,20,07,12.20
2018,04,06,20,08,12.20
2018,04,06,20,09,12.20
2018,04,06,20,10,12.20
2018,04,06,20,11,12.20
2018,04,06,20,12,12.20
2018,04,06,20,13,12.20
2018,04,06,20,14,12.20
2018,04,06,20,15,12.20
2018,04,06,20,16,12.20
2018,04,06,20,17,12.20
2018,04,06,20,18,12.10
2018,04,06,20,19,12.10
2018,04,06,20,20,12.10
2018,04,06,20,21,12.10
2018,04,06,20,22,12.10
2018,04,06,20,23,12.10
2018,04,06,20,24,12.10
2018,04,06,20,25,12.10
2018,04,06,20,26,12.10
2018,04,06,20,27,12.10
2018,04,06,20,28,12.10
2018,04,06,20,29,12.10
2018,04,06,20,30,12.10
2018,04,06,20,31,12.10
2018,04,06,20,32,12.10
2018,04,06,20,33,12.10
2018,04,06,20,34,12.10
2018,04,06,20,35,12.10
2018,04,06,20,36,12.10
2018,04,06,20,37,12.10
2018,04,06,20,38,12.10
2018,04,06,20,39,12.10
2018,04,06,20,40,12.10
2018,04,06,20,41,12.10
2018,04,06,20,42,12.10
2018,04,06,20,43,12.10
2018,04,06,20,44,12.00
2018,04,06,20,45,12.00
2018,04,06,20,46,12.00
2018,04,06,20,47,12.00
2018,04,06,20,48,12.00
2018,04,06,20,49,12.00
2018,04,06,20,50,12.00
2018,04,06,20,51,12.00
2018,04,06,20,52,12.00
2018,04,06,20,53,12.00
2018,04,06,20,54,12.00
2018,04,06,20,55,12.00
2018,04,06,20,56,12.00
2018,04,06,20,57,12.00
2018,04,06,20,58,12.00
2018,04,06,20,59,12.00
2018,04,06,21,00,12.00
2018,04,06,21,01,12.00
2018,04,06,21,02,12.00
2018,04,06,21,03,12.00
2018,04,06,21,04,12.00
2018,04,06,21,05,12.10
2018,04,06,21,06,12.10
2018,04,06,21,07,12.10
2018,04,06,21,08,12.10
2018,04,06,21,09,12.10
2018,04,06,21,10,12.10
2018,04,06,21,11,12.10
2018,04,06,21,12,12.10
2018,04,06,21,13,12.00
2018,04,06,21,14,12.00
2018,04,06,21,15,12.00
2018,04,06,21,16,12.00
2018,04,06,21,17,12.00
2018,04,06,21,18,12.00
2018,04,06,21,19,12.00
2018,04,06,21,20,12.00
2018,04,06,21,21,12.00
2018,04,06,21,22,12.00
2018,04,06,21,23,12.00
2018,04,06,21,24,12.10
2018,04,06,21,25,12.00
2018,04,06,21,26,12.10
2018,04,06,21,27,12.10
2018,04,06,21,28,12.10
2018,04,06,21,29,12.10
2018,04,06,21,30,12.10
2018,04,06,21,31,12.10
2018,04,06,21,32,12.10
2018,04,06,21,33,12.10
2018,04,06,21,34,12.10
2018,04,06,21,35,12.10
2018,04,06,21,36,12.10
2018,04,06,21,37,12.10
2018,04,06,21,38,12.10
2018,04,06,21,39,12.10
2018,04,06,21,40,12.10
2018,04,06,21,41,12.10
2018,04,06,21,42,12.10
2018,04,06,21,43,12.00
2018,04,06,21,44,12.00
2018,04,06,21,45,12.00
2018,04,06,21,46,12.00
2018,04,06,21,47,12.00
2018,04,06,21,48,12.00
2018,04,06,21,49,12.00
2018,04,06,21,50,12.00
2018,04,06,21,51,12.00
2018,04,06,21,52,12.00
2018,04,06,21,53,12.00
2018,04,06,21,54,12.00
2018,04,06,21,55,12.00
2018,04,06,21,56,12.00
2018,04,06,21,57,12.00
2018,04,06,21,58,12.00
2018,04,06,21,59,12.00
2018,04,06,22,00,12.00
2018,04,06,22,01,12.00
2018,04,06,22,02,12.00
2018,04,06,22,03,12.00
2018,04,06,22,04,12.00
2018,04,06,22,05,12.10
2018,04,06,22,06,12.10
2018,04,06,22,07,12.10
2018,04,06,22,08,12.10
2018,04,06,22,09,12.10
2018,04,06,22,10,12.10
2018,04,06,22,11,12.00
2018,04,06,22,12,12.00
2018,04,06,22,13,12.00
2018,04,06,22,14,12.00
2018,04,06,22,15,12.00
2018,04,06,22,16,12.00
2018,04,06,22,17,11.90
2018,04,06,22,18,11.90
2018,04,06,22,19,11.90
2018,04,06,22,20,11.90
2018,04,06,22,21,11.90
2018,04,06,22,22,11.90
2018,04,06,22,23,11.90
2018,04,06,22,24,11.90
2018,04,06,22,25,11.80
2018,04,06,22,26,11.80
2018,04,06,22,27,11.80
2018,04,06,22,28,11.80
2018,04,06,22,29,11.80
2018,04,06,22,30,11.80
2018,04,06,22,31,11.80
2018,04,06,22,32,11.80
2018,04,06,22,33,11.80
2018,04,06,22,34,11.80
2018,04,06,22,35,11.80
2018,04,06,22,36,11.80
2018,04,06,22,37,11.80
2018,04,06,22,38,11.80
2018,04,06,22,39,11.80
2018,04,06,22,40,11.80
2018,04,06,22,41,11.80
2018,04,06,22,42,11.80
2018,04,06,22,43,11.80
2018,04,06,22,44,11.80
2018,04,06,22,45,11.80
2018,04,06,22,46,11.80
2018,04,06,22,47,11.80
2018,04,06,22,48,11.80
2018,04,06,22,49,11.80
2018,04,06,22,50,11.90
2018,04,06,22,51,11.90
2018,04,06,22,52,11.90
2018,04,06,22,53,11.90
2018,04,06,22,54,11.90
2018,04,06,22,55,11.90
2018,04,06,22,56,11.90
2018,04,06,22,57,12.00
2018,04,06,22,58,12.00
2018,04,06,22,59,12.00
2018,04,06,23,00,12.00
2018,04,06,23,01,12.00
2018,04,06,23,02,12.00
2018,04,06,23,03,12.00
2018,04,06,23,04,12.00
2018,04,06,23,05,12.00
2018,04,06,23,06,12.00
2018,04,06,23,07,12.00
2018,04,06,23,08,12.00
2018,04,06,23,09,12.00
2018,04,06,23,10,12.00
2018,04,06,23,11,12.00
2018,04,06,23,12,12.00
2018,04,06,23,13,11.90
2018,04,06,23,14,11.90
2018,04,06,23,15,11.90
2018,04,06,23,16,11.90
2018,04,06,23,17,11.90
2018,04,06,23,18,11.90
2018,04,06,23,19,11.90
2018,04,06,23,20,11.90
2018,04,06,23,21,11.90
2018,04,06,23,22,11.90
2018,04,06,23,23,11.90
2018,04,06,23,24,11.90
2018,04,06,23,25,11.90
2018,04,06,23,26,11.90
2018,04,06,23,27,12.00
2018,04,06,23,28,12.00
2018,04,06,23,29,12.00
2018,04,06,23,30,12.00
2018,04,06,23,31,12.00
2018,04,06,23,32,12.00
2018,04,06,23,33,12.00
2018,04,06,23,34,12.00
2018,04,06,23,35,12.00
2018,04,06,23,36,12.00
2018,04,06,23,37,12.00
2018,04,06,23,38,11.90
2018,04,06,23,39,11.90
2018,04,06,23,40,11.90
2018,04,06,23,41,11.90
2018,04,06,23,42,12.00
2018,04,06,23,43,12.00
2018,04,06,23,44,12.00
2018,04,06,23,45,12.00
2018,04,06,23,46,12.00
2018,04,06,23,47,12.00
2018,04,06,23,48,12.00
2018,04,06,23,49,11.90
2018,04,06,23,50,11.90
2018,04,06,23,51,11.90
2018,04,06,23,52,11.90
2018,04,06,23,53,11.90
2018,04,06,23,54,11.90
2018,04,06,23,55,11.90
2018,04,06,23,56,11.80
2018,04,06,23,57,11.80
2018,04,06,23,58,11.80
2018,04,06,23,59,11.80
